Flag for South Africa Weather past 2 weeks in Pretoria, South Africa

Now
63 °F

Mild.


Feels Like: 63 °F
Forecast: 62 / 86 °F
Wind: 2 mph from South

Location: Waterkloof Lmb

Current Time: Dec 20, 2014 at 6:47:19 AM

Latest Report: Dec 20, 2014 at 6:00 AM


Visibility: N/A

Pressure: 30.15 "Hg

Humidity: 94%

Dew point: 61 °F

Location of PretoriaLocation

Historic Weather in Pretoria — Graph

°F

Pretoria temperature yesterday

Maximum temperature yesterday: 81 °F (at 4:00 PM)
Minimum temperature yesterday: 63 °F (at 2:00 AM)
Average temperature yesterday: 71 °F

Past Weeks' High & Low Weather Summary

 TemperatureHumidityPressure
High90 °F (Dec 5, 12:00 PM)100% (Dec 10, 12:00 AM)30.24 "Hg (Dec 10, 12:00 AM)
Low59 °F (Dec 17, 2:00 AM)20% (Dec 5, 1:00 PM)30.01 "Hg (Dec 15, 3:00 PM)
Average69 °F75%30.14 "Hg
* Reported Dec 5 6:00 AM — Dec 20 6:00 AM, Pretoria, Weather by CustomWeather, © 2014

Note: Actual official high and low records may vary slightly from our data, if they occured in-between our weather recording intervals... More about our weather records

Advertising

Pretoria weather history for previous 24 hours

 ConditionsComfort  
Time TempWeatherWind HumidityBarometerVisibility
6:00 AM
Dec 20
63 °FMild.2 mph94%30.15 "HgN/A
5:00 AM63 °FMild.2 mph88%30.15 "HgN/A
4:00 AM63 °FMild.7 mph88%30.12 "HgN/A
3:00 AM64 °FMild.6 mph83%30.12 "HgN/A
2:00 AM63 °FMild.5 mph88%30.12 "HgN/A
1:00 AM66 °FMild.6 mph78%30.12 "HgN/A
12:10 AM66 °FMild.2 mph78%30.12 "HgN/A
11:00 PM
Dec 19
64 °FMild.7 mph88%30.15 "HgN/A
10:00 PM64 °FMild.6 mph88%30.18 "HgN/A
9:00 PM64 °FMild.9 mph88%30.12 "HgN/A
8:00 PM64 °FMild.7 mph88%30.12 "HgN/A
7:00 PM64 °FMild.12 mph88%30.12 "HgN/A
6:00 PM72 °FMild.15 mph73%30.07 "HgN/A
5:00 PM77 °FWarm.8 mph54%30.04 "HgN/A
4:00 PM81 °FWarm.7 mph48%30.04 "HgN/A
3:00 PM79 °FWarm.5 mph48%30.07 "HgN/A
2:00 PM79 °FWarm.5 mph54%30.09 "HgN/A
1:00 PM77 °FWarm.5 mph57%30.09 "HgN/A
Weather by CustomWeather, © 2014

See weather overviewHow to use our weather pages